Year,Month,Day,Hour,Minute,Value (Times are PST for temperature in C)
2007,09,28,00,00,11.20
2007,09,28,00,01,11.20
2007,09,28,00,02,11.20
2007,09,28,00,03,11.20
2007,09,28,00,04,11.20
2007,09,28,00,05,11.20
2007,09,28,00,06,11.20
2007,09,28,00,07,11.20
2007,09,28,00,08,11.20
2007,09,28,00,09,11.20
2007,09,28,00,10,11.20
2007,09,28,00,11,11.20
2007,09,28,00,12,11.20
2007,09,28,00,13,11.20
2007,09,28,00,14,11.10
2007,09,28,00,15,11.10
2007,09,28,00,16,11.10
2007,09,28,00,17,11.10
2007,09,28,00,18,11.10
2007,09,28,00,19,11.00
2007,09,28,00,20,11.00
2007,09,28,00,21,11.00
2007,09,28,00,22,11.00
2007,09,28,00,23,10.90
2007,09,28,00,24,10.90
2007,09,28,00,25,10.90
2007,09,28,00,26,10.90
2007,09,28,00,27,11.00
2007,09,28,00,28,11.00
2007,09,28,00,29,11.00
2007,09,28,00,30,11.00
2007,09,28,00,31,11.00
2007,09,28,00,32,11.00
2007,09,28,00,33,11.00
2007,09,28,00,34,11.00
2007,09,28,00,35,11.00
2007,09,28,00,36,11.00
2007,09,28,00,37,11.00
2007,09,28,00,38,11.00
2007,09,28,00,39,11.00
2007,09,28,00,40,11.00
2007,09,28,00,41,11.00
2007,09,28,00,42,11.00
2007,09,28,00,43,11.00
2007,09,28,00,44,11.00
2007,09,28,00,45,11.00
2007,09,28,00,46,11.00
2007,09,28,00,47,11.00
2007,09,28,00,48,11.00
2007,09,28,00,49,11.00
2007,09,28,00,50,11.00
2007,09,28,00,51,11.00
2007,09,28,00,52,11.00
2007,09,28,00,53,11.00
2007,09,28,00,54,11.00
2007,09,28,00,55,10.90
2007,09,28,00,56,10.90
2007,09,28,00,57,10.90
2007,09,28,00,58,10.90
2007,09,28,00,59,10.90
2007,09,28,01,00,10.90
2007,09,28,01,01,10.90
2007,09,28,01,02,10.90
2007,09,28,01,03,10.90
2007,09,28,01,04,10.90
2007,09,28,01,05,10.90
2007,09,28,01,06,10.90
2007,09,28,01,07,10.90
2007,09,28,01,08,10.90
2007,09,28,01,09,10.90
2007,09,28,01,10,10.90
2007,09,28,01,11,10.90
2007,09,28,01,12,10.90
2007,09,28,01,13,10.90
2007,09,28,01,14,10.90
2007,09,28,01,15,10.90
2007,09,28,01,16,10.80
2007,09,28,01,17,10.80
2007,09,28,01,18,10.80
2007,09,28,01,19,10.80
2007,09,28,01,20,10.80
2007,09,28,01,21,10.80
2007,09,28,01,22,10.80
2007,09,28,01,23,10.80
2007,09,28,01,24,10.80
2007,09,28,01,25,10.80
2007,09,28,01,26,10.70
2007,09,28,01,27,10.70
2007,09,28,01,28,10.70
2007,09,28,01,29,10.70
2007,09,28,01,30,10.60
2007,09,28,01,31,10.60
2007,09,28,01,32,10.60
2007,09,28,01,33,10.60
2007,09,28,01,34,10.60
2007,09,28,01,35,10.60
2007,09,28,01,36,10.50
2007,09,28,01,37,10.50
2007,09,28,01,38,10.50
2007,09,28,01,39,10.50
2007,09,28,01,40,10.50
2007,09,28,01,41,10.50
2007,09,28,01,42,10.50
2007,09,28,01,43,10.50
2007,09,28,01,44,10.50
2007,09,28,01,45,10.50
2007,09,28,01,46,10.50
2007,09,28,01,47,10.40
2007,09,28,01,48,10.40
2007,09,28,01,49,10.40
2007,09,28,01,50,10.40
2007,09,28,01,51,10.40
2007,09,28,01,52,10.40
2007,09,28,01,53,10.40
2007,09,28,01,54,10.40
2007,09,28,01,55,10.50
2007,09,28,01,56,10.50
2007,09,28,01,57,10.50
2007,09,28,01,58,10.50
2007,09,28,01,59,10.60
2007,09,28,02,00,10.50
2007,09,28,02,01,10.50
2007,09,28,02,02,10.50
2007,09,28,02,03,10.50
2007,09,28,02,04,10.50
2007,09,28,02,05,10.50
2007,09,28,02,06,10.50
2007,09,28,02,07,10.50
2007,09,28,02,08,10.50
2007,09,28,02,09,10.50
2007,09,28,02,10,10.50
2007,09,28,02,11,10.50
2007,09,28,02,12,10.50
2007,09,28,02,13,10.50
2007,09,28,02,14,10.50
2007,09,28,02,15,10.50
2007,09,28,02,16,10.50
2007,09,28,02,17,10.40
2007,09,28,02,18,10.40
2007,09,28,02,19,10.40
2007,09,28,02,20,10.40
2007,09,28,02,21,10.40
2007,09,28,02,22,10.40
2007,09,28,02,23,10.40
2007,09,28,02,24,10.40
2007,09,28,02,25,10.40
2007,09,28,02,26,10.40
2007,09,28,02,27,10.40
2007,09,28,02,28,10.30
2007,09,28,02,29,10.30
2007,09,28,02,30,10.30
2007,09,28,02,31,10.30
2007,09,28,02,32,10.30
2007,09,28,02,33,10.30
2007,09,28,02,34,10.30
2007,09,28,02,35,10.30
2007,09,28,02,36,10.30
2007,09,28,02,37,10.30
2007,09,28,02,38,10.30
2007,09,28,02,39,10.30
2007,09,28,02,40,10.30
2007,09,28,02,41,10.30
2007,09,28,02,42,10.30
2007,09,28,02,43,10.30
2007,09,28,02,44,10.30
2007,09,28,02,45,10.30
2007,09,28,02,46,10.30
2007,09,28,02,47,10.30
2007,09,28,02,48,10.30
2007,09,28,02,49,10.30
2007,09,28,02,50,10.20
2007,09,28,02,51,10.20
2007,09,28,02,52,10.20
2007,09,28,02,53,10.20
2007,09,28,02,54,10.20
2007,09,28,02,55,10.20
2007,09,28,02,56,10.20
2007,09,28,02,57,10.20
2007,09,28,02,58,10.20
2007,09,28,02,59,10.20
2007,09,28,03,00,10.20
2007,09,28,03,01,10.20
2007,09,28,03,02,10.20
2007,09,28,03,03,10.20
2007,09,28,03,04,10.20
2007,09,28,03,05,10.20
2007,09,28,03,06,10.20
2007,09,28,03,07,10.20
2007,09,28,03,08,10.20
2007,09,28,03,09,10.20
2007,09,28,03,10,10.20
2007,09,28,03,11,10.20
2007,09,28,03,12,10.20
2007,09,28,03,13,10.20
2007,09,28,03,14,10.20
2007,09,28,03,15,10.20
2007,09,28,03,16,10.10
2007,09,28,03,17,10.10
2007,09,28,03,18,10.10
2007,09,28,03,19,10.10
2007,09,28,03,20,10.10
2007,09,28,03,21,10.10
2007,09,28,03,22,10.10
2007,09,28,03,23,10.10
2007,09,28,03,24,10.10
2007,09,28,03,25,10.10
2007,09,28,03,26,10.10
2007,09,28,03,27,10.10
2007,09,28,03,28,10.10
2007,09,28,03,29,10.10
2007,09,28,03,30,10.00
2007,09,28,03,31,10.10
2007,09,28,03,32,10.10
2007,09,28,03,33,10.00
2007,09,28,03,34,10.00
2007,09,28,03,35,10.10
2007,09,28,03,36,10.10
2007,09,28,03,37,10.10
2007,09,28,03,38,10.00
2007,09,28,03,39,10.00
2007,09,28,03,40,10.10
2007,09,28,03,41,10.10
2007,09,28,03,42,10.10
2007,09,28,03,43,10.10
2007,09,28,03,44,10.00
2007,09,28,03,45,10.00
2007,09,28,03,46,10.00
2007,09,28,03,47,10.00
2007,09,28,03,48,10.00
2007,09,28,03,49,10.00
2007,09,28,03,50,10.00
2007,09,28,03,51,10.00
2007,09,28,03,52,10.00
2007,09,28,03,53,10.00
2007,09,28,03,54,10.00
2007,09,28,03,55,10.00
2007,09,28,03,56,10.00
2007,09,28,03,57,10.00
2007,09,28,03,58,9.90
2007,09,28,03,59,9.90
2007,09,28,04,00,9.90
2007,09,28,04,01,9.90
2007,09,28,04,02,9.90
2007,09,28,04,03,9.90
2007,09,28,04,04,9.90
2007,09,28,04,05,9.80
2007,09,28,04,06,9.80
2007,09,28,04,07,9.80
2007,09,28,04,08,9.80
2007,09,28,04,09,9.80
2007,09,28,04,10,9.80
2007,09,28,04,11,9.80
2007,09,28,04,12,9.80
2007,09,28,04,13,9.80
2007,09,28,04,14,9.80
2007,09,28,04,15,9.70
2007,09,28,04,16,9.70
2007,09,28,04,17,9.80
2007,09,28,04,18,9.80
2007,09,28,04,19,9.80
2007,09,28,04,20,9.80
2007,09,28,04,21,9.80
2007,09,28,04,22,9.80
2007,09,28,04,23,9.80
2007,09,28,04,24,9.80
2007,09,28,04,25,9.80
2007,09,28,04,26,9.80
2007,09,28,04,27,9.80
2007,09,28,04,28,9.80
2007,09,28,04,29,9.80
2007,09,28,04,30,9.80
2007,09,28,04,31,9.80
2007,09,28,04,32,9.80
2007,09,28,04,33,9.80
2007,09,28,04,34,9.80
2007,09,28,04,35,9.80
2007,09,28,04,36,9.80
2007,09,28,04,37,9.80
2007,09,28,04,38,9.80
2007,09,28,04,39,9.80
2007,09,28,04,40,9.80
2007,09,28,04,41,9.70
2007,09,28,04,42,9.80
2007,09,28,04,43,9.70
2007,09,28,04,44,9.70
2007,09,28,04,45,9.70
2007,09,28,04,46,9.70
2007,09,28,04,47,9.70
2007,09,28,04,48,9.70
2007,09,28,04,49,9.70
2007,09,28,04,50,9.70
2007,09,28,04,51,9.70
2007,09,28,04,52,9.60
2007,09,28,04,53,9.60
2007,09,28,04,54,9.60
2007,09,28,04,55,9.60
2007,09,28,04,56,9.60
2007,09,28,04,57,9.60
2007,09,28,04,58,9.60
2007,09,28,04,59,9.60
2007,09,28,05,00,9.60
2007,09,28,05,01,9.60
2007,09,28,05,02,9.60
2007,09,28,05,03,9.60
2007,09,28,05,04,9.60
2007,09,28,05,05,9.60
2007,09,28,05,06,9.50
2007,09,28,05,07,9.50
2007,09,28,05,08,9.50
2007,09,28,05,09,9.50
2007,09,28,05,10,9.40
2007,09,28,05,11,9.40
2007,09,28,05,12,9.40
2007,09,28,05,13,9.40
2007,09,28,05,14,9.40
2007,09,28,05,15,9.40
2007,09,28,05,16,9.40
2007,09,28,05,17,9.40
2007,09,28,05,18,9.40
2007,09,28,05,19,9.40
2007,09,28,05,20,9.30
2007,09,28,05,21,9.30
2007,09,28,05,22,9.30
2007,09,28,05,23,9.30
2007,09,28,05,24,9.30
2007,09,28,05,25,9.30
2007,09,28,05,26,9.30
2007,09,28,05,27,9.30
2007,09,28,05,28,9.30
2007,09,28,05,29,9.30
2007,09,28,05,30,9.30
2007,09,28,05,31,9.30
2007,09,28,05,32,9.30
2007,09,28,05,33,9.30
2007,09,28,05,34,9.30
2007,09,28,05,35,9.30
2007,09,28,05,36,9.30
2007,09,28,05,37,9.30
2007,09,28,05,38,9.30
2007,09,28,05,39,9.30
2007,09,28,05,40,9.30
2007,09,28,05,41,9.30
2007,09,28,05,42,9.30
2007,09,28,05,43,9.30
2007,09,28,05,44,9.30
2007,09,28,05,45,9.30
2007,09,28,05,46,9.30
2007,09,28,05,47,9.30
2007,09,28,05,48,9.30
2007,09,28,05,49,9.40
2007,09,28,05,50,9.30
2007,09,28,05,51,9.30
2007,09,28,05,52,9.30
2007,09,28,05,53,9.30
2007,09,28,05,54,9.30
2007,09,28,05,55,9.30
2007,09,28,05,56,9.30
2007,09,28,05,57,9.30
2007,09,28,05,58,9.30
2007,09,28,05,59,9.30
2007,09,28,06,00,9.30
2007,09,28,06,01,9.20
2007,09,28,06,02,9.20
2007,09,28,06,03,9.20
2007,09,28,06,04,9.20
2007,09,28,06,05,9.20
2007,09,28,06,06,9.20
2007,09,28,06,07,9.10
2007,09,28,06,08,9.10
2007,09,28,06,09,9.10
2007,09,28,06,10,9.10
2007,09,28,06,11,9.10
2007,09,28,06,12,9.10
2007,09,28,06,13,9.00
2007,09,28,06,14,9.00
2007,09,28,06,15,9.00
2007,09,28,06,16,9.00
2007,09,28,06,17,9.00
2007,09,28,06,18,8.90
2007,09,28,06,19,8.90
2007,09,28,06,20,8.90
2007,09,28,06,21,8.90
2007,09,28,06,22,8.90
2007,09,28,06,23,8.90
2007,09,28,06,24,8.90
2007,09,28,06,25,8.90
2007,09,28,06,26,8.80
2007,09,28,06,27,8.80
2007,09,28,06,28,8.80
2007,09,28,06,29,8.80
2007,09,28,06,30,8.80
2007,09,28,06,31,8.70
2007,09,28,06,32,8.70
2007,09,28,06,33,8.70
2007,09,28,06,34,8.70
2007,09,28,06,35,8.60
2007,09,28,06,36,8.60
2007,09,28,06,37,8.60
2007,09,28,06,38,8.60
2007,09,28,06,39,8.60
2007,09,28,06,40,8.60
2007,09,28,06,41,8.60
2007,09,28,06,42,8.60
2007,09,28,06,43,8.50
2007,09,28,06,44,8.50
2007,09,28,06,45,8.50
2007,09,28,06,46,8.40
2007,09,28,06,47,8.40
2007,09,28,06,48,8.40
2007,09,28,06,49,8.40
2007,09,28,06,50,8.40
2007,09,28,06,51,8.40
2007,09,28,06,52,8.40
2007,09,28,06,53,8.40
2007,09,28,06,54,8.40
2007,09,28,06,55,8.40
2007,09,28,06,56,8.40
2007,09,28,06,57,8.40
2007,09,28,06,58,8.40
2007,09,28,06,59,8.40
2007,09,28,07,00,8.40
2007,09,28,07,01,8.40
2007,09,28,07,02,8.40
2007,09,28,07,03,8.40
2007,09,28,07,04,8.40
2007,09,28,07,05,8.40
2007,09,28,07,06,8.40
2007,09,28,07,07,8.40
2007,09,28,07,08,8.40
2007,09,28,07,09,8.40
2007,09,28,07,10,8.40
2007,09,28,07,11,8.50
2007,09,28,07,12,8.50
2007,09,28,07,13,8.50
2007,09,28,07,14,8.50
2007,09,28,07,15,8.50
2007,09,28,07,16,8.50
2007,09,28,07,17,8.50
2007,09,28,07,18,8.50
2007,09,28,07,19,8.50
2007,09,28,07,20,8.50
2007,09,28,07,21,8.50
2007,09,28,07,22,8.50
2007,09,28,07,23,8.50
2007,09,28,07,24,8.50
2007,09,28,07,25,8.50
2007,09,28,07,26,8.50
2007,09,28,07,27,8.50
2007,09,28,07,28,8.50
2007,09,28,07,29,8.50
2007,09,28,07,30,8.50
2007,09,28,07,31,8.50
2007,09,28,07,32,8.50
2007,09,28,07,33,8.50
2007,09,28,07,34,8.50
2007,09,28,07,35,8.50
2007,09,28,07,36,8.50
2007,09,28,07,37,8.50
2007,09,28,07,38,8.50
2007,09,28,07,39,8.40
2007,09,28,07,40,8.30
2007,09,28,07,41,8.30
2007,09,28,07,42,8.30
2007,09,28,07,43,8.20
2007,09,28,07,44,8.20
2007,09,28,07,45,8.10
2007,09,28,07,46,8.00
2007,09,28,07,47,8.00
2007,09,28,07,48,7.90
2007,09,28,07,49,7.90
2007,09,28,07,50,7.90
2007,09,28,07,51,7.90
2007,09,28,07,52,7.90
2007,09,28,07,53,7.90
2007,09,28,07,54,7.90
2007,09,28,07,55,8.00
2007,09,28,07,56,8.00
2007,09,28,07,57,8.10
2007,09,28,07,58,8.20
2007,09,28,07,59,8.30
2007,09,28,08,00,8.30
2007,09,28,08,01,8.40
2007,09,28,08,02,8.40
2007,09,28,08,03,8.40
2007,09,28,08,04,8.40
2007,09,28,08,05,8.40
2007,09,28,08,06,8.30
2007,09,28,08,07,8.30
2007,09,28,08,08,8.30
2007,09,28,08,09,8.30
2007,09,28,08,10,8.40
2007,09,28,08,11,8.40
2007,09,28,08,12,8.40
2007,09,28,08,13,8.50
2007,09,28,08,14,8.60
2007,09,28,08,15,8.70
2007,09,28,08,16,8.70
2007,09,28,08,17,8.80
2007,09,28,08,18,8.90
2007,09,28,08,19,8.90
2007,09,28,08,20,9.00
2007,09,28,08,21,9.10
2007,09,28,08,22,9.10
2007,09,28,08,23,9.20
2007,09,28,08,24,9.30
2007,09,28,08,25,9.40
2007,09,28,08,26,9.50
2007,09,28,08,27,9.50
2007,09,28,08,28,9.60
2007,09,28,08,29,9.60
2007,09,28,08,30,9.60
2007,09,28,08,31,9.60
2007,09,28,08,32,9.60
2007,09,28,08,33,9.60
2007,09,28,08,34,9.70
2007,09,28,08,35,9.80
2007,09,28,08,36,9.80
2007,09,28,08,37,9.90
2007,09,28,08,38,9.90
2007,09,28,08,39,9.90
2007,09,28,08,40,9.90
2007,09,28,08,41,9.90
2007,09,28,08,42,9.90
2007,09,28,08,43,9.90
2007,09,28,08,44,10.00
2007,09,28,08,45,10.00
2007,09,28,08,46,9.90
2007,09,28,08,47,10.00
2007,09,28,08,48,10.00
2007,09,28,08,49,10.10
2007,09,28,08,50,10.10
2007,09,28,08,51,10.10
2007,09,28,08,52,10.10
2007,09,28,08,53,10.10
2007,09,28,08,54,10.10
2007,09,28,08,55,10.10
2007,09,28,08,56,10.20
2007,09,28,08,57,10.20
2007,09,28,08,58,10.30
2007,09,28,08,59,10.40
2007,09,28,09,00,10.40
2007,09,28,09,01,10.40
2007,09,28,09,02,10.50
2007,09,28,09,03,10.50
2007,09,28,09,04,10.60
2007,09,28,09,05,10.60
2007,09,28,09,06,10.60
2007,09,28,09,07,10.60
2007,09,28,09,08,10.60
2007,09,28,09,09,10.60
2007,09,28,09,10,10.70
2007,09,28,09,11,10.70
2007,09,28,09,12,10.70
2007,09,28,09,13,10.70
2007,09,28,09,14,10.70
2007,09,28,09,15,10.60
2007,09,28,09,16,10.60
2007,09,28,09,17,10.70
2007,09,28,09,18,10.70
2007,09,28,09,19,10.80
2007,09,28,09,20,10.80
2007,09,28,09,21,10.80
2007,09,28,09,22,10.80
2007,09,28,09,23,10.90
2007,09,28,09,24,10.90
2007,09,28,09,25,10.90
2007,09,28,09,26,11.00
2007,09,28,09,27,11.10
2007,09,28,09,28,11.10
2007,09,28,09,29,11.20
2007,09,28,09,30,11.20
2007,09,28,09,31,11.20
2007,09,28,09,32,11.20
2007,09,28,09,33,11.10
2007,09,28,09,34,11.10
2007,09,28,09,35,11.10
2007,09,28,09,36,11.10
2007,09,28,09,37,11.10
2007,09,28,09,38,11.20
2007,09,28,09,39,11.20
2007,09,28,09,40,11.20
2007,09,28,09,41,11.20
2007,09,28,09,42,11.20
2007,09,28,09,43,11.20
2007,09,28,09,44,11.30
2007,09,28,09,45,11.30
2007,09,28,09,46,11.30
2007,09,28,09,47,11.30
2007,09,28,09,48,11.40
2007,09,28,09,49,11.40
2007,09,28,09,50,11.50
2007,09,28,09,51,11.60
2007,09,28,09,52,11.60
2007,09,28,09,53,11.60
2007,09,28,09,54,11.60
2007,09,28,09,55,11.60
2007,09,28,09,56,11.60
2007,09,28,09,57,11.60
2007,09,28,09,58,11.60
2007,09,28,09,59,11.70
2007,09,28,10,00,11.80
2007,09,28,10,01,11.90
2007,09,28,10,02,12.00
2007,09,28,10,03,12.10
2007,09,28,10,04,12.10
2007,09,28,10,05,12.20
2007,09,28,10,06,12.20
2007,09,28,10,07,12.20
2007,09,28,10,08,12.20
2007,09,28,10,09,12.30
2007,09,28,10,10,12.40
2007,09,28,10,11,12.40
2007,09,28,10,12,12.30
2007,09,28,10,13,12.30
2007,09,28,10,14,12.30
2007,09,28,10,15,12.20
2007,09,28,10,16,12.10
2007,09,28,10,17,12.10
2007,09,28,10,18,12.20
2007,09,28,10,19,12.20
2007,09,28,10,20,12.10
2007,09,28,10,21,12.10
2007,09,28,10,22,12.20
2007,09,28,10,23,12.30
2007,09,28,10,24,12.20
2007,09,28,10,25,12.10
2007,09,28,10,26,12.10
2007,09,28,10,27,12.20
2007,09,28,10,28,12.20
2007,09,28,10,29,12.20
2007,09,28,10,30,12.20
2007,09,28,10,31,12.20
2007,09,28,10,32,12.20
2007,09,28,10,33,12.20
2007,09,28,10,34,12.20
2007,09,28,10,35,12.20
2007,09,28,10,36,12.20
2007,09,28,10,37,12.20
2007,09,28,10,38,12.20
2007,09,28,10,39,12.20
2007,09,28,10,40,12.20
2007,09,28,10,41,12.20
2007,09,28,10,42,12.10
2007,09,28,10,43,12.10
2007,09,28,10,44,12.10
2007,09,28,10,45,12.10
2007,09,28,10,46,12.20
2007,09,28,10,47,12.20
2007,09,28,10,48,12.30
2007,09,28,10,49,12.40
2007,09,28,10,50,12.40
2007,09,28,10,51,12.50
2007,09,28,10,52,12.60
2007,09,28,10,53,12.70
2007,09,28,10,54,12.70
2007,09,28,10,55,12.80
2007,09,28,10,56,12.80
2007,09,28,10,57,12.80
2007,09,28,10,58,12.80
2007,09,28,10,59,12.80
2007,09,28,11,00,12.80
2007,09,28,11,01,12.80
2007,09,28,11,02,12.80
2007,09,28,11,03,12.80
2007,09,28,11,04,12.80
2007,09,28,11,05,12.80
2007,09,28,11,06,12.80
2007,09,28,11,07,12.80
2007,09,28,11,08,12.70
2007,09,28,11,09,12.70
2007,09,28,11,10,12.70
2007,09,28,11,11,12.80
2007,09,28,11,12,12.80
2007,09,28,11,13,12.90
2007,09,28,11,14,13.00
2007,09,28,11,15,13.10
2007,09,28,11,16,13.10
2007,09,28,11,17,13.10
2007,09,28,11,18,13.10
2007,09,28,11,19,13.10
2007,09,28,11,20,13.10
2007,09,28,11,21,13.10
2007,09,28,11,22,13.10
2007,09,28,11,23,13.10
2007,09,28,11,24,13.10
2007,09,28,11,25,13.10
2007,09,28,11,26,13.10
2007,09,28,11,27,13.10
2007,09,28,11,28,13.00
2007,09,28,11,29,12.90
2007,09,28,11,30,13.00
2007,09,28,11,31,13.10
2007,09,28,11,32,13.30
2007,09,28,11,33,13.40
2007,09,28,11,34,13.40
2007,09,28,11,35,13.30
2007,09,28,11,36,13.20
2007,09,28,11,37,13.10
2007,09,28,11,38,13.00
2007,09,28,11,39,12.90
2007,09,28,11,40,12.90
2007,09,28,11,41,12.90
2007,09,28,11,42,12.90
2007,09,28,11,43,12.90
2007,09,28,11,44,12.90
2007,09,28,11,45,13.00
2007,09,28,11,46,13.00
2007,09,28,11,47,13.10
2007,09,28,11,48,13.10
2007,09,28,11,49,13.10
2007,09,28,11,50,13.20
2007,09,28,11,51,13.20
2007,09,28,11,52,13.30
2007,09,28,11,53,13.20
2007,09,28,11,54,13.20
2007,09,28,11,55,13.20
2007,09,28,11,56,13.20
2007,09,28,11,57,13.30
2007,09,28,11,58,13.20
2007,09,28,11,59,13.20
2007,09,28,12,00,13.10
2007,09,28,12,01,13.00
2007,09,28,12,02,13.00
2007,09,28,12,03,13.00
2007,09,28,12,04,13.00
2007,09,28,12,05,13.00
2007,09,28,12,06,13.00
2007,09,28,12,07,13.00
2007,09,28,12,08,13.10
2007,09,28,12,09,13.10
2007,09,28,12,10,13.10
2007,09,28,12,11,13.00
2007,09,28,12,12,13.00
2007,09,28,12,13,12.90
2007,09,28,12,14,12.90
2007,09,28,12,15,12.90
2007,09,28,12,16,12.80
2007,09,28,12,17,12.80
2007,09,28,12,18,12.80
2007,09,28,12,19,12.80
2007,09,28,12,20,12.80
2007,09,28,12,21,12.80
2007,09,28,12,22,12.80
2007,09,28,12,23,12.80
2007,09,28,12,24,12.70
2007,09,28,12,25,12.70
2007,09,28,12,26,12.70
2007,09,28,12,27,12.70
2007,09,28,12,28,12.70
2007,09,28,12,29,12.60
2007,09,28,12,30,12.60
2007,09,28,12,31,12.60
2007,09,28,12,32,12.70
2007,09,28,12,33,12.70
2007,09,28,12,34,12.70
2007,09,28,12,35,12.70
2007,09,28,12,36,12.70
2007,09,28,12,37,12.70
2007,09,28,12,38,12.70
2007,09,28,12,39,12.80
2007,09,28,12,40,12.90
2007,09,28,12,41,12.90
2007,09,28,12,42,13.00
2007,09,28,12,43,13.10
2007,09,28,12,44,13.10
2007,09,28,12,45,13.20
2007,09,28,12,46,13.10
2007,09,28,12,47,13.00
2007,09,28,12,48,13.00
2007,09,28,12,49,13.00
2007,09,28,12,50,13.00
2007,09,28,12,51,13.00
2007,09,28,12,52,13.10
2007,09,28,12,53,13.10
2007,09,28,12,54,13.10
2007,09,28,12,55,13.20
2007,09,28,12,56,13.20
2007,09,28,12,57,13.20
2007,09,28,12,58,13.20
2007,09,28,12,59,13.20
2007,09,28,13,00,13.20
2007,09,28,13,01,13.30
2007,09,28,13,02,13.40
2007,09,28,13,03,13.60
2007,09,28,13,04,13.80
2007,09,28,13,05,13.90
2007,09,28,13,06,14.00
2007,09,28,13,07,14.10
2007,09,28,13,08,14.30
2007,09,28,13,09,14.30
2007,09,28,13,10,14.20
2007,09,28,13,11,14.10
2007,09,28,13,12,14.10
2007,09,28,13,13,14.10
2007,09,28,13,14,14.00
2007,09,28,13,15,13.90
2007,09,28,13,16,13.70
2007,09,28,13,17,13.70
2007,09,28,13,18,13.70
2007,09,28,13,19,13.80
2007,09,28,13,20,13.80
2007,09,28,13,21,13.80
2007,09,28,13,22,13.80
2007,09,28,13,23,13.80
2007,09,28,13,24,13.90
2007,09,28,13,25,14.00
2007,09,28,13,26,14.10
2007,09,28,13,27,14.10
2007,09,28,13,28,14.10
2007,09,28,13,29,14.00
2007,09,28,13,30,13.90
2007,09,28,13,31,13.90
2007,09,28,13,32,13.80
2007,09,28,13,33,13.80
2007,09,28,13,34,13.90
2007,09,28,13,35,14.00
2007,09,28,13,36,14.10
2007,09,28,13,37,14.10
2007,09,28,13,38,14.00
2007,09,28,13,39,14.00
2007,09,28,13,40,14.00
2007,09,28,13,41,13.90
2007,09,28,13,42,13.90
2007,09,28,13,43,13.90
2007,09,28,13,44,13.90
2007,09,28,13,45,13.80
2007,09,28,13,46,13.80
2007,09,28,13,47,13.90
2007,09,28,13,48,14.00
2007,09,28,13,49,14.00
2007,09,28,13,50,14.00
2007,09,28,13,51,14.00
2007,09,28,13,52,14.00
2007,09,28,13,53,14.00
2007,09,28,13,54,14.00
2007,09,28,13,55,14.00
2007,09,28,13,56,14.20
2007,09,28,13,57,14.30
2007,09,28,13,58,14.40
2007,09,28,13,59,14.40
2007,09,28,14,00,14.40
2007,09,28,14,01,14.50
2007,09,28,14,02,14.50
2007,09,28,14,03,14.70
2007,09,28,14,04,14.70
2007,09,28,14,05,14.60
2007,09,28,14,06,14.60
2007,09,28,14,07,14.60
2007,09,28,14,08,14.70
2007,09,28,14,09,14.70
2007,09,28,14,10,14.60
2007,09,28,14,11,14.50
2007,09,28,14,12,14.50
2007,09,28,14,13,14.40
2007,09,28,14,14,14.40
2007,09,28,14,15,14.30
2007,09,28,14,16,14.30
2007,09,28,14,17,14.30
2007,09,28,14,18,14.40
2007,09,28,14,19,14.40
2007,09,28,14,20,14.40
2007,09,28,14,21,14.40
2007,09,28,14,22,14.30
2007,09,28,14,23,14.30
2007,09,28,14,24,14.30
2007,09,28,14,25,14.30
2007,09,28,14,26,14.40
2007,09,28,14,27,14.50
2007,09,28,14,28,14.50
2007,09,28,14,29,14.40
2007,09,28,14,30,14.40
2007,09,28,14,31,14.40
2007,09,28,14,32,14.30
2007,09,28,14,33,14.20
2007,09,28,14,34,14.20
2007,09,28,14,35,14.30
2007,09,28,14,36,14.20
2007,09,28,14,37,14.20
2007,09,28,14,38,14.30
2007,09,28,14,39,14.30
2007,09,28,14,40,14.30
2007,09,28,14,41,14.40
2007,09,28,14,42,14.50
2007,09,28,14,43,14.50
2007,09,28,14,44,14.50
2007,09,28,14,45,14.40
2007,09,28,14,46,14.40
2007,09,28,14,47,14.30
2007,09,28,14,48,14.30
2007,09,28,14,49,14.30
2007,09,28,14,50,14.30
2007,09,28,14,51,14.50
2007,09,28,14,52,14.50
2007,09,28,14,53,14.50
2007,09,28,14,54,14.50
2007,09,28,14,55,14.60
2007,09,28,14,56,14.50
2007,09,28,14,57,14.50
2007,09,28,14,58,14.40
2007,09,28,14,59,14.40
2007,09,28,15,00,14.30
2007,09,28,15,01,14.30
2007,09,28,15,02,14.20
2007,09,28,15,03,14.20
2007,09,28,15,04,14.20
2007,09,28,15,05,14.20
2007,09,28,15,06,14.20
2007,09,28,15,07,14.20
2007,09,28,15,08,14.20
2007,09,28,15,09,14.20
2007,09,28,15,10,14.30
2007,09,28,15,11,14.30
2007,09,28,15,12,14.30
2007,09,28,15,13,14.20
2007,09,28,15,14,14.20
2007,09,28,15,15,14.20
2007,09,28,15,16,14.10
2007,09,28,15,17,14.10
2007,09,28,15,18,14.10
2007,09,28,15,19,14.00
2007,09,28,15,20,13.90
2007,09,28,15,21,13.80
2007,09,28,15,22,13.70
2007,09,28,15,23,13.60
2007,09,28,15,24,13.50
2007,09,28,15,25,13.40
2007,09,28,15,26,13.40
2007,09,28,15,27,13.30
2007,09,28,15,28,13.30
2007,09,28,15,29,13.30
2007,09,28,15,30,13.30
2007,09,28,15,31,13.30
2007,09,28,15,32,13.40
2007,09,28,15,33,13.30
2007,09,28,15,34,13.30
2007,09,28,15,35,13.30
2007,09,28,15,36,13.30
2007,09,28,15,37,13.30
2007,09,28,15,38,13.30
2007,09,28,15,39,13.30
2007,09,28,15,40,13.30
2007,09,28,15,41,13.30
2007,09,28,15,42,13.30
2007,09,28,15,43,13.30
2007,09,28,15,44,13.30
2007,09,28,15,45,13.40
2007,09,28,15,46,13.40
2007,09,28,15,47,13.40
2007,09,28,15,48,13.40
2007,09,28,15,49,13.40
2007,09,28,15,50,13.40
2007,09,28,15,51,13.50
2007,09,28,15,52,13.60
2007,09,28,15,53,13.70
2007,09,28,15,54,13.70
2007,09,28,15,55,13.70
2007,09,28,15,56,13.70
2007,09,28,15,57,13.70
2007,09,28,15,58,13.70
2007,09,28,15,59,13.70
2007,09,28,16,00,13.80
2007,09,28,16,01,13.80
2007,09,28,16,02,13.90
2007,09,28,16,03,13.90
2007,09,28,16,04,13.90
2007,09,28,16,05,13.80
2007,09,28,16,06,13.80
2007,09,28,16,07,13.70
2007,09,28,16,08,13.60
2007,09,28,16,09,13.60
2007,09,28,16,10,13.60
2007,09,28,16,11,13.60
2007,09,28,16,12,13.60
2007,09,28,16,13,13.60
2007,09,28,16,14,13.50
2007,09,28,16,15,13.40
2007,09,28,16,16,13.40
2007,09,28,16,17,13.40
2007,09,28,16,18,13.30
2007,09,28,16,19,13.30
2007,09,28,16,20,13.20
2007,09,28,16,21,13.30
2007,09,28,16,22,13.30
2007,09,28,16,23,13.30
2007,09,28,16,24,13.40
2007,09,28,16,25,13.40
2007,09,28,16,26,13.50
2007,09,28,16,27,13.50
2007,09,28,16,28,13.60
2007,09,28,16,29,13.60
2007,09,28,16,30,13.60
2007,09,28,16,31,13.60
2007,09,28,16,32,13.60
2007,09,28,16,33,13.60
2007,09,28,16,34,13.60
2007,09,28,16,35,13.60
2007,09,28,16,36,13.60
2007,09,28,16,37,13.70
2007,09,28,16,38,13.70
2007,09,28,16,39,13.70
2007,09,28,16,40,13.70
2007,09,28,16,41,13.70
2007,09,28,16,42,13.70
2007,09,28,16,43,13.80
2007,09,28,16,44,13.80
2007,09,28,16,45,13.80
2007,09,28,16,46,13.80
2007,09,28,16,47,13.70
2007,09,28,16,48,13.70
2007,09,28,16,49,13.60
2007,09,28,16,50,13.60
2007,09,28,16,51,13.60
2007,09,28,16,52,13.60
2007,09,28,16,53,13.50
2007,09,28,16,54,13.50
2007,09,28,16,55,13.50
2007,09,28,16,56,13.50
2007,09,28,16,57,13.50
2007,09,28,16,58,13.60
2007,09,28,16,59,13.70
2007,09,28,17,00,13.70
2007,09,28,17,01,13.70
2007,09,28,17,02,13.70
2007,09,28,17,03,13.70
2007,09,28,17,04,13.70
2007,09,28,17,05,13.70
2007,09,28,17,06,13.70
2007,09,28,17,07,13.70
2007,09,28,17,08,13.80
2007,09,28,17,09,13.80
2007,09,28,17,10,13.70
2007,09,28,17,11,13.70
2007,09,28,17,12,13.60
2007,09,28,17,13,13.60
2007,09,28,17,14,13.60
2007,09,28,17,15,13.60
2007,09,28,17,16,13.60
2007,09,28,17,17,13.60
2007,09,28,17,18,13.60
2007,09,28,17,19,13.50
2007,09,28,17,20,13.50
2007,09,28,17,21,13.40
2007,09,28,17,22,13.40
2007,09,28,17,23,13.40
2007,09,28,17,24,13.40
2007,09,28,17,25,13.40
2007,09,28,17,26,13.40
2007,09,28,17,27,13.40
2007,09,28,17,28,13.50
2007,09,28,17,29,13.60
2007,09,28,17,30,13.60
2007,09,28,17,31,13.70